Wetbulb
60.85 60.34 59.84 59.75 59.84 59.56 58.66 58.03 57.95 57.90 57.61 57.42 57.13 57.08 57.39 57.39 57.28 57.39 57.41 57.19 57.08 57.13 57.51 58.22 59.15 59.44 60.74 60.67 57.99 63.06 74.48 74.01 67.58 63.00 58.76 60.12 61.30 63.39 60.99 62.87 63.50 63.16 62.77 64.56 65.59 65.74 66.65
60.91 60.20 59.73 59.27 59.24 59.02 58.89 58.45 57.96 57.77 57.88 57.63 57.79 57.51 57.44 57.70 57.16 57.15 57.21 56.88 56.37 56.67 57.40 58.49 59.31 59.08 60.18 55.71 60.93 61.88 62.54 64.90 63.30 62.40 59.90 61.32 62.28 65.15 62.87 62.45 62.42 63.55 62.52 62.64 63.87 64.58 65.20
60.44 60.19 59.25 58.71 58.74 58.55 58.50 58.20 57.53 57.19 57.14 57.13 57.34 57.57 57.67 57.33 56.74 56.71 56.84 56.77 56.26 56.61 57.75 59.18 59.73 60.58 60.21 59.43 62.60 61.33 61.77 60.86 62.05 62.84 60.56 62.95 64.43 63.92 64.04 61.99 64.06 63.40 60.45 61.74 62.91 63.91 63.26
60.31 59.64 58.69 58.53 58.42 58.10 58.10 57.84 57.89 57.41 57.23 56.81 56.98 57.16 57.31 56.74 56.47 56.63 56.58 55.94 56.01 57.43 59.37 60.18 58.98 61.46 58.08 63.66 64.77 61.04 61.74 61.03 61.73 62.56 62.29 64.07 65.41 64.63 62.91 64.14 62.42 59.43 60.07 57.18 60.74 62.03 62.70
59.95 59.43 58.62 58.65 58.47 57.97 57.95 57.71 57.59 57.49 56.98 57.18 56.97 57.07 56.91 56.62 56.48 56.37 55.42 55.63 56.71 59.06 60.74 59.33 60.12 60.70 57.60 64.82 59.45 61.69 61.03 58.91 59.85 60.72 62.09 63.35 62.87 62.77 61.98 58.60 57.50 58.17 55.25 56.70 59.13 62.59 61.75
58.92 58.80 58.52 57.95 57.96 57.89 57.79 57.84 57.51 56.31 56.05 56.78 56.85 56.72 56.60 56.41 56.18 55.60 54.68 55.42 60.14 58.64 61.04 62.96 61.98 58.95 60.65 57.95 59.99 60.11 61.27 60.66 57.51 58.65 58.96 59.51 60.56 59.56 59.44 57.03 52.14 54.90 54.84 57.75 57.62 60.63 60.72
58.52 58.02 57.90 57.47 57.44 57.82 57.73 57.57 57.36 57.25 56.62 56.26 56.58 56.21 56.26 56.25 55.70 54.98 55.24 61.20 59.02 57.43 59.62 55.83 56.91 56.26 57.84 60.55 61.78 58.55 60.52 59.38 57.69 57.20 53.52 56.62 57.15 55.53 57.52 58.80 58.62 59.14 57.84 57.27 59.19 62.26 60.42
58.08 57.91 57.65 57.49 57.38 57.22 57.35 57.23 57.13 57.13 57.01 56.65 56.22 56.11 55.89 55.94 55.04 54.86 54.70 57.45 60.18 60.50 55.88 59.66 57.42 58.46 60.17 60.94 56.25 56.85 60.51 55.75 54.62 52.38 54.82 53.87 53.70 58.79 60.59 59.98 58.20 58.50 55.97 55.56 58.60 60.39 59.57
57.65 57.44 57.38 57.57 57.31 57.10 56.81 56.76 56.67 56.67 56.58 56.57 56.17 55.76 55.72 55.04 54.56 54.47 57.76 59.48 63.79 62.12 55.24 56.48 58.35 57.47 57.59 59.27 56.35 54.86 57.84 56.36 54.16 52.60 52.95 51.29 53.98 58.60 59.33 58.75 56.83 56.63 55.82 56.70 57.08 59.44 60.56
57.14 56.80 56.86 57.19 56.98 57.00 56.65 56.50 56.39 56.38 56.47 56.19 55.98 55.63 55.11 54.07 53.29 62.46 60.37 63.50 63.54 62.64 51.10 51.74 54.90 55.43 57.28 57.98 54.82 58.63 58.81 56.75 55.56 52.34 53.29 52.78 55.70 55.73 57.70 57.49 57.24 53.49 58.08 58.09 56.28 55.19 51.88
56.00 56.63 56.62 56.52 56.72 56.69 56.40 56.27 56.08 56.11 56.17 56.05 55.77 55.19 54.45 53.85 54.62 59.29 62.47 63.66 62.89 60.59 43.02 52.40 55.04 59.71 57.21 55.27 56.09 56.36 59.15 56.84 53.50 53.50 53.37 51.90 52.61 53.77 55.63 57.78 58.35 55.50 59.50 57.82 57.06 55.08 54.80
56.60 56.54 56.56 56.24 56.50 56.29 55.99 55.75 55.59 55.80 55.86 55.70 55.21 54.60 54.25 56.35 55.92 59.60 64.04 63.57 61.05 49.83 42.37 51.25 54.83 52.92 52.88 54.91 55.22 56.32 55.50 57.21 56.94 54.15 54.71 53.57 56.62 55.08 56.92 59.81 58.85 59.43 57.85 57.39 56.23 54.78 49.91
56.62 56.30 56.26 56.16 56.12 55.93 55.73 55.40 55.26 55.40 55.33 54.92 53.96 53.22 52.97 57.26 60.49 64.22 63.26 59.99 49.38 44.81 52.36 51.09 51.72 52.74 52.81 52.31 54.08 54.09 52.20 51.01 50.59 48.89 49.46 52.76 53.24 55.45 57.48 57.22 58.25 57.51 55.30 49.72 48.52 48.66 47.41
56.28 56.25 56.09 55.98 55.83 55.73 55.55 54.92 55.21 55.19 54.82 53.62 52.15 51.73 53.93 56.99 64.07 64.01 61.19 54.20 45.64 49.08 50.18 55.37 53.96 53.47 50.20 52.60 53.54 53.24 51.36 49.36 52.94 52.26 50.37 48.87 47.34 53.67 57.86 57.22 55.35 55.21 54.71 49.85 46.33 45.19 45.79
56.13 56.16 56.05 55.67 55.57 55.42 54.80 54.71 54.91 54.92 54.19 52.88 51.31 58.79 59.78 61.90 61.89 63.13 56.99 48.59 49.54 51.73 52.92 53.25 53.62 50.52 50.18 52.19 52.29 52.66 51.71 49.94 51.97 53.08 49.64 49.36 49.24 55.32 56.44 58.02 57.62 55.52 52.39 55.74 51.40 52.34 50.26
55.72 55.71 55.56 55.58 55.25 55.35 54.68 54.98 55.11 54.41 54.00 52.60 55.24 61.96 62.13 64.31 63.55 60.76 54.33 47.68 52.37 55.55 56.13 55.65 50.67 51.63 49.11 50.63 50.53 51.31 51.11 52.90 51.75 53.35 55.16 53.07 49.32 53.29 55.51 56.99 57.68 56.24 57.82 51.85 52.00 47.03 45.88
55.21 55.38 55.40 55.43 55.53 55.67 55.91 55.75 55.12 54.08 53.29 52.28 57.57 59.51 62.43 63.98 62.66 57.00 50.12 52.14 54.42 57.46 56.93 54.67 53.90 52.47 52.17 50.71 51.59 51.16 51.23 53.24 53.91 53.38 54.31 53.31 51.84 52.19 54.11 52.96 52.77 52.97 52.11 54.14 54.88 52.97 48.99
54.81 55.29 55.44 55.77 55.67 55.89 55.91 55.77 54.70 53.54 52.21 52.27 61.17 55.38 62.45 63.26 54.13 54.88 51.69 53.71 53.03 55.64 57.15 55.84 55.99 54.91 53.88 52.80 51.70 51.46 51.01 53.07 55.58 54.93 51.31 53.55 52.35 49.90 51.20 55.01 56.36 54.80 53.06 54.15 51.14 50.86 52.74
54.86 55.45 55.51 55.83 55.87 55.97 56.01 55.39 54.43 53.36 52.87 55.11 58.85 59.49 62.66 61.62 51.34 52.40 54.60 54.29 54.96 54.85 55.20 54.22 54.30 56.21 57.24 53.95 51.78 52.47 53.01 55.80 55.88 54.29 53.13 53.84 50.79 47.73 49.48 52.86 54.77 52.29 53.85 54.42 54.43 54.32 53.11
54.78 54.86 55.52 55.61 55.67 55.91 55.68 55.11 54.37 53.67 53.06 53.87 58.86 54.55 57.17 58.21 58.04 55.67 54.74 53.64 53.44 55.92 55.63 56.27 55.81 57.64 56.33 56.02 55.18 53.23 52.89 54.70 55.59 54.70 62.66 59.32 51.53 50.03 47.60 50.68 53.74 51.46 52.31 53.39 53.71 52.06 51.83
54.56 54.76 54.70 54.96 55.37 55.69 55.70 55.15 54.19 53.62 53.03 54.35 60.31 55.31 58.32 52.74 54.09 55.67 55.32 55.18 53.05 52.31 55.40 56.27 55.47 56.42 56.03 54.90 53.73 54.10 54.44 54.81 55.53 59.89 56.38 53.70 49.82 51.48 51.62 52.47 52.93 53.12 52.65 53.13 52.50 53.61 51.51
53.98 54.15 54.33 54.63 54.62 55.47 55.46 55.09 54.58 53.62 52.43 57.01 59.02 56.62 60.86 57.48 56.77 57.49 52.58 53.94 53.23 53.08 54.76 53.59 54.52 56.48 57.54 55.83 57.27 55.26 56.42 56.43 56.65 55.66 53.62 54.40 50.71 52.26 50.33 52.16 52.00 50.87 52.92 53.48 53.86 53.87 53.58
53.48 53.68 53.39 53.72 54.11 54.03 55.20 55.16 54.89 53.90 53.15 58.14 60.05 60.63 59.86 54.89 58.08 56.49 55.23 55.96 55.69 55.70 55.93 57.82 59.02 58.07 57.45 60.47 60.54 62.04 63.46 60.64 60.88 57.91 54.93 53.31 51.60 50.82 48.60 52.16 51.51 49.13 51.71 52.19 53.01 54.79 54.75
52.58 52.77 52.84 53.00 53.23 53.80 54.51 55.04 54.69 54.49 53.49 55.64 58.81 57.48 56.71 54.94 55.81 55.90 56.21 56.82 57.52 56.14 55.25 58.52 60.39 59.35 61.70 66.14 64.63 61.92 61.76 61.28 61.34 58.75 60.42 54.91 53.89 52.66 49.01 51.72 45.51 52.62 56.53 55.46 53.52 54.22 55.22
53.08 53.06 53.28 53.01 53.28 53.24 53.88 53.89 54.11 54.52 54.43 54.71 58.73 57.50 56.22 54.38 57.65 57.58 57.98 55.74 59.18 59.73 58.10 59.16 61.55 62.81 65.46 63.06 58.88 56.15 56.23 56.15 57.49 58.85 58.84 58.50 54.96 51.49 48.78 48.09 50.93 52.80 55.07 54.50 53.54 53.58 56.22
52.63 52.71 53.00 53.21 53.14 53.52 53.57 53.81 53.79 53.97 54.37 54.95 57.83 60.63 56.81 54.12 54.69 56.69 57.17 59.12 57.32 57.20 57.91 59.32 63.38 65.76 64.04 59.90 56.87 52.52 50.18 53.54 53.07 55.84 59.16 58.50 58.96 55.13 52.51 47.79 45.95 54.13 59.68 59.21 59.36 51.20 64.00
52.54 52.52 52.73 53.12 53.39 53.61 53.98 54.16 54.00 54.18 54.32 54.18 56.68 61.38 56.81 53.00 56.07 56.52 55.20 56.58 59.56 58.81 57.87 58.55 57.68 61.40 63.08 57.91 53.84 52.63 51.67 56.76 52.35 52.41 51.33 53.75 54.66 52.63 51.38 50.75 53.23 58.99 59.80 58.43 51.66 56.72 64.80
52.23 52.21 52.44 52.90 53.23 53.68 54.24 54.21 54.00 53.94 54.71 54.33 56.60 60.84 57.08 53.99 55.73 57.85 58.21 56.38 57.91 60.16 56.45 56.81 57.49 60.16 59.25 54.62 54.08 53.87 53.75 55.59 55.28 54.69 52.66 51.28 48.92 49.43 51.25 46.48 48.69 62.27 58.77 53.08 63.50 66.19 65.52
51.87 52.27 52.62 52.98 52.94 53.35 54.14 53.97 54.20 54.33 54.42 54.54 55.73 61.35 61.04 55.38 55.08 58.40 58.41 59.65 59.46 60.29 59.77 56.90 57.15 59.02 61.53 59.12 56.94 56.59 55.19 55.71 51.58 49.01 56.25 50.31 53.43 52.24 52.20 49.63 58.93 65.40 64.81 66.06 65.56 65.58 65.57
MSLP
1019.84 1019.51 1019.19 1018.86 1018.53 1018.18 1017.89 1017.62 1017.29 1016.99 1016.66 1016.33 1015.99 1015.65 1015.26 1014.94 1014.64 1014.23 1013.86 1013.52 1013.14 1012.68 1012.22 1011.88 1011.65 1011.31 1010.42 1007.79 1003.64 1002.73 1003.13 1003.35 1003.45 1003.31 1002.39 1001.49 999.93 998.43 997.70 997.77 998.02 998.23 998.76 998.91 998.99 999.07 998.65
1019.90 1019.54 1019.20 1018.87 1018.56 1018.22 1017.86 1017.58 1017.27 1016.97 1016.65 1016.32 1015.93 1015.57 1015.19 1014.79 1014.38 1014.04 1013.63 1013.29 1012.94 1012.47 1012.05 1011.66 1011.39 1011.37 1009.79 1005.37 1001.67 1001.76 1002.17 1002.31 1002.30 1002.20 1001.53 1001.01 999.41 998.44 998.04 997.62 997.99 997.99 998.40 998.35 998.60 998.78 998.73
1019.99 1019.65 1019.33 1018.98 1018.61 1018.26 1017.94 1017.54 1017.21 1016.94 1016.67 1016.36 1015.96 1015.51 1015.08 1014.69 1014.22 1013.72 1013.30 1012.91 1012.55 1012.09 1011.67 1011.35 1011.26 1010.73 1007.63 1003.36 1001.63 1001.53 1001.83 1001.66 1001.38 1001.04 1000.83 1000.26 999.40 999.02 998.05 997.89 998.26 998.23 998.35 998.18 998.03 998.30 998.62
1020.02 1019.72 1019.42 1019.06 1018.70 1018.30 1017.90 1017.53 1017.16 1016.84 1016.61 1016.26 1015.92 1015.51 1015.08 1014.58 1014.06 1013.54 1012.93 1012.42 1012.01 1011.54 1011.17 1010.93 1011.04 1009.90 1005.42 1001.87 1001.44 1001.54 1001.39 1001.05 1000.95 1000.60 1000.57 999.68 999.55 999.37 998.52 997.92 998.37 998.40 998.07 997.69 997.56 998.19 998.64
1020.12 1019.75 1019.44 1019.05 1018.72 1018.33 1017.88 1017.45 1017.09 1016.78 1016.45 1016.11 1015.80 1015.40 1015.04 1014.59 1013.97 1013.31 1012.63 1011.87 1011.34 1010.96 1010.72 1010.72 1010.30 1008.30 1003.60 1002.00 1001.45 1001.24 1000.96 1000.42 1000.44 1000.38 1000.26 999.92 999.95 999.62 998.44 998.29 998.16 998.08 997.69 997.36 997.91 998.04 998.39
1020.14 1019.79 1019.38 1019.06 1018.71 1018.31 1017.85 1017.39 1017.00 1016.69 1016.37 1015.95 1015.59 1015.28 1014.90 1014.47 1013.92 1013.29 1012.32 1011.02 1010.42 1010.54 1010.18 1009.36 1008.27 1006.57 1002.43 1000.59 1000.15 1000.46 1000.43 1000.11 1000.16 1000.16 1000.22 1000.33 1000.00 999.23 998.26 997.74 997.26 997.33 997.09 997.42 997.39 997.77 998.32
1020.24 1019.79 1019.43 1019.11 1018.71 1018.24 1017.77 1017.31 1016.95 1016.61 1016.21 1015.83 1015.43 1015.06 1014.71 1014.29 1013.83 1013.38 1012.30 1009.46 1009.66 1008.86 1007.83 1005.01 1003.32 1001.93 1000.13 999.68 999.62 999.80 1000.00 999.90 999.96 999.96 999.81 999.87 999.40 998.42 997.41 996.98 996.83 997.40 997.49 997.78 997.21 997.63 998.03
1020.26 1019.76 1019.45 1019.10 1018.65 1018.17 1017.68 1017.22 1016.84 1016.48 1016.10 1015.72 1015.32 1014.89 1014.48 1014.03 1013.60 1013.24 1013.00 1009.29 1005.72 1005.18 1004.25 1003.23 1002.29 1000.93 999.93 999.60 999.78 999.63 999.83 999.90 999.64 999.35 999.40 999.07 998.64 997.99 997.07 996.44 996.44 996.91 997.01 996.98 996.74 997.18 997.81
1020.20 1019.75 1019.39 1018.99 1018.54 1018.10 1017.64 1017.19 1016.77 1016.34 1015.92 1015.55 1015.17 1014.78 1014.32 1013.77 1013.03 1012.32 1009.97 1007.25 1005.49 1005.21 1003.43 1000.80 1000.54 1000.11 999.60 999.97 999.07 999.02 999.44 999.32 999.06 998.99 998.60 997.93 997.86 997.61 996.81 996.41 996.82 997.00 996.71 997.16 997.17 997.72 997.62
1020.14 1019.69 1019.28 1018.83 1018.40 1017.97 1017.54 1017.11 1016.65 1016.20 1015.76 1015.38 1014.98 1014.61 1014.25 1013.58 1012.88 1009.08 1007.30 1006.13 1005.90 1005.33 1002.75 998.90 998.50 998.96 998.97 999.27 998.67 998.12 998.83 998.91 998.27 998.30 997.96 997.57 996.75 996.94 996.60 996.31 997.05 996.55 996.63 996.61 997.38 997.57 997.33
1020.05 1019.59 1019.13 1018.72 1018.23 1017.77 1017.37 1016.95 1016.47 1016.00 1015.54 1015.16 1014.77 1014.43 1014.14 1014.17 1012.10 1008.48 1005.79 1005.52 1005.19 1004.76 1000.73 996.02 997.03 997.24 998.02 998.40 996.93 997.46 998.20 998.41 997.74 997.63 997.65 996.81 996.49 996.22 996.24 995.96 996.67 996.45 996.62 997.21 997.49 997.68 997.89
1019.92 1019.45 1018.98 1018.54 1018.09 1017.63 1017.24 1016.79 1016.24 1015.72 1015.23 1014.79 1014.44 1014.14 1013.93 1012.09 1011.86 1008.24 1006.65 1005.69 1005.36 1003.52 998.45 995.83 996.39 996.76 997.42 997.70 997.27 997.04 997.84 998.49 997.95 997.43 997.04 996.43 996.20 996.16 995.98 995.99 996.56 996.60 996.58 997.00 997.67 997.98 998.40
1019.77 1019.31 1018.81 1018.40 1017.92 1017.45 1017.02 1016.55 1016.00 1015.41 1014.83 1014.28 1013.85 1013.59 1013.68 1011.89 1008.12 1006.49 1006.85 1005.65 1003.94 1000.58 996.66 995.69 996.39 996.55 996.79 996.95 996.55 996.69 997.38 997.82 997.44 997.25 996.65 996.38 995.77 995.63 995.43 995.54 996.29 996.66 996.73 997.03 997.17 997.69 1001.12
1019.62 1019.14 1018.67 1018.19 1017.75 1017.29 1016.83 1016.32 1015.68 1015.03 1014.40 1013.72 1012.99 1012.74 1011.39 1010.57 1007.68 1006.94 1006.00 1004.99 1001.53 998.26 996.14 994.53 995.15 996.05 996.14 996.21 996.07 996.27 997.03 997.20 997.27 996.76 995.96 995.68 995.66 995.26 995.17 995.62 995.78 996.13 996.49 996.78 996.92 998.37 1000.34
1019.47 1019.00 1018.50 1018.01 1017.58 1017.13 1016.62 1016.02 1015.31 1014.62 1013.96 1013.13 1012.07 1010.24 1009.12 1007.62 1008.28 1006.74 1005.54 1003.13 999.42 996.50 995.36 993.90 994.33 995.04 995.49 995.56 995.85 995.99 996.33 996.42 996.42 996.32 995.54 994.84 995.03 994.69 995.06 995.47 995.80 995.61 996.06 996.62 996.68 996.67 997.12
1019.40 1018.91 1018.39 1017.89 1017.40 1016.91 1016.34 1015.65 1014.95 1014.24 1013.46 1012.95 1011.42 1007.83 1005.67 1005.96 1006.93 1006.16 1004.74 1001.70 998.95 996.91 995.82 993.96 993.70 994.21 994.53 994.69 995.13 995.14 995.49 995.57 995.57 995.78 995.28 994.43 994.06 994.26 994.52 995.37 995.47 995.71 995.65 996.04 996.41 996.67 996.89
1019.24 1018.77 1018.30 1017.76 1017.23 1016.68 1016.08 1015.42 1014.74 1013.90 1012.84 1012.23 1010.55 1006.60 1004.95 1005.39 1006.05 1005.22 1003.02 1000.88 999.11 997.42 996.63 995.38 994.14 993.75 993.62 993.65 994.16 993.89 994.23 994.50 994.76 994.77 995.31 994.84 994.38 993.77 994.04 994.44 995.00 995.70 995.70 995.57 995.43 995.61 995.97
1019.14 1018.70 1018.18 1017.65 1017.07 1016.49 1015.87 1015.29 1014.64 1013.82 1012.27 1011.11 1008.35 1005.28 1004.72 1004.95 1004.89 1003.59 1001.90 1000.18 999.14 996.80 996.85 996.21 995.26 994.31 992.97 992.74 993.25 993.40 993.56 993.60 993.60 994.20 994.58 995.08 994.43 993.84 993.49 994.16 994.75 994.93 995.08 995.31 995.25 995.58 995.76
1019.12 1018.63 1018.12 1017.57 1016.97 1016.35 1015.74 1015.14 1014.56 1014.00 1013.68 1012.39 1007.95 1004.59 1004.39 1004.12 1002.96 1001.63 1000.83 999.56 999.00 997.46 996.63 996.11 995.39 994.21 992.82 992.56 992.76 993.30 993.03 992.96 993.56 994.02 994.13 995.08 995.04 994.37 993.56 993.60 993.95 994.44 994.78 994.76 995.07 994.97 995.03
1019.14 1018.63 1018.07 1017.54 1016.94 1016.30 1015.63 1014.97 1014.36 1013.87 1013.72 1013.46 1008.89 1005.26 1004.60 1004.00 1002.82 1001.72 1000.13 998.75 997.48 997.77 997.03 996.19 995.36 994.48 993.84 992.70 992.36 992.99 992.94 993.02 993.73 994.43 995.02 994.88 994.83 994.36 993.47 993.16 993.07 993.72 994.35 994.51 994.49 994.40 994.53
1019.08 1018.59 1018.08 1017.53 1016.94 1016.26 1015.54 1014.83 1014.09 1013.48 1013.15 1013.18 1008.30 1007.21 1004.80 1002.89 1001.89 1001.47 1000.29 998.78 997.52 997.13 997.36 996.76 996.16 995.24 994.17 993.31 992.90 992.95 992.97 993.10 994.25 995.18 995.38 995.28 994.96 994.85 994.24 993.64 993.11 992.76 993.28 993.81 993.96 994.24 994.17
1019.04 1018.55 1018.04 1017.51 1016.92 1016.24 1015.56 1014.81 1013.94 1012.94 1011.95 1010.74 1007.60 1006.60 1003.87 1002.45 1001.76 1000.73 999.48 998.47 997.33 996.91 996.34 996.42 996.22 995.38 994.71 993.92 994.44 993.46 993.06 993.11 993.93 994.89 995.21 995.33 995.35 995.18 994.78 994.25 993.66 993.08 992.76 992.86 993.04 993.56 993.96
1018.98 1018.48 1018.00 1017.42 1016.87 1016.29 1015.62 1014.92 1014.17 1013.30 1011.49 1009.04 1007.29 1006.13 1004.67 1002.68 1001.47 1000.56 999.35 998.62 997.81 996.90 996.27 995.79 995.72 995.33 995.43 995.63 995.72 995.21 994.17 993.49 993.41 993.80 994.57 995.08 995.15 995.32 994.77 994.59 994.15 993.33 993.20 992.98 992.83 992.61 992.83
1018.92 1018.41 1017.90 1017.38 1016.82 1016.24 1015.66 1015.06 1014.50 1013.99 1013.79 1012.23 1009.13 1007.45 1005.26 1002.87 1002.76 1001.47 1000.38 999.52 998.42 997.11 996.69 996.38 996.31 996.19 996.60 996.09 995.93 996.13 995.03 994.64 993.97 994.78 994.11 994.98 995.28 995.36 995.21 994.82 993.87 993.37 992.91 992.74 992.71 992.68 992.70
1018.79 1018.29 1017.76 1017.24 1016.73 1016.22 1015.71 1015.16 1014.62 1014.11 1013.71 1012.45 1010.13 1007.95 1006.32 1004.03 1002.43 1001.42 1000.62 1001.13 999.07 998.10 997.92 997.66 996.31 996.44 996.45 996.66 995.73 996.64 995.50 994.84 993.87 994.41 994.40 994.47 995.39 995.60 995.64 995.23 994.69 993.78 993.16 992.72 992.51 992.62 992.62
1018.64 1018.19 1017.70 1017.18 1016.66 1016.18 1015.66 1015.14 1014.66 1014.14 1013.62 1012.51 1010.01 1008.61 1007.56 1005.25 1002.38 1001.94 1000.42 999.46 998.79 998.19 998.01 998.13 997.66 997.26 997.07 996.56 996.33 996.00 995.35 995.15 995.30 995.13 995.33 995.30 995.25 996.08 996.42 996.16 995.24 994.73 994.65 994.86 993.00 993.42 993.66
1018.48 1018.01 1017.58 1017.11 1016.60 1016.07 1015.59 1015.10 1014.62 1014.15 1013.72 1013.23 1010.56 1008.98 1008.10 1006.03 1003.01 1002.18 1000.97 1000.47 999.82 999.53 999.63 1000.25 999.66 998.09 998.06 997.42 996.59 996.24 996.15 996.23 996.54 997.35 998.35 998.53 998.62 998.35 998.51 997.87 996.17 996.51 995.91 995.59 995.89 997.17 995.86
1018.35 1017.84 1017.39 1016.95 1016.47 1015.96 1015.45 1014.99 1014.57 1014.18 1013.80 1013.27 1010.37 1008.85 1008.60 1006.70 1004.02 1003.02 1002.10 1001.57 1000.74 999.99 1000.72 1003.14 1002.15 999.04 997.68 997.58 997.11 996.99 997.30 997.97 999.42 1000.97 1001.09 1001.42 1001.53 1001.97 1001.78 1002.07 998.91 998.06 997.95 997.90 998.50 997.33 996.93
1018.24 1017.73 1017.22 1016.72 1016.28 1015.82 1015.33 1014.91 1014.53 1014.18 1013.87 1013.57 1010.65 1008.59 1008.22 1007.75 1004.90 1003.58 1003.09 1002.47 1001.74 1000.76 1000.52 1001.40 1000.77 1001.04 998.52 997.71 997.97 998.35 999.17 1000.75 1002.39 1002.89 1003.16 1003.59 1002.85 1003.73 1004.02 1001.75 1002.11 998.56 998.09 998.17 998.38 997.82 997.78
Wind_Speed
13 13 14 14 14 14 14 14 14 13 14 14 15 15 15 14 15 15 16 15 16 16 17 17 15 14 10 10 14 9 8 7 9 10 15 14 18 15 7 2 3 11 6 5 0 3 2
13 14 14 15 14 14 14 14 14 13 14 14 13 13 14 14 16 16 17 16 16 17 17 16 14 11 8 13 3 6 6 7 12 13 15 15 16 10 11 4 3 5 1 7 9 10 6
13 13 14 15 15 14 14 14 14 14 14 15 14 13 14 15 17 18 18 17 18 17 17 14 9 8 12 17 1 4 8 11 13 14 15 16 17 9 10 4 2 7 8 7 10 9 9
12 13 14 14 13 14 13 13 14 14 13 14 15 13 14 16 18 18 19 19 20 17 14 9 5 9 10 12 13 9 10 11 12 12 16 15 7 14 17 3 3 11 13 12 11 4 8
14 13 14 14 13 13 13 13 13 13 14 13 14 14 14 15 17 18 20 22 20 14 10 5 7 10 17 3 11 14 14 12 13 13 13 8 4 15 16 6 11 11 14 4 10 10 6
14 14 15 15 14 13 13 12 13 15 16 14 13 14 15 15 16 17 23 24 7 10 8 10 11 11 13 13 11 15 15 13 13 14 13 10 10 16 16 12 13 10 10 8 13 9 6
15 15 14 15 15 14 14 13 13 13 14 15 15 14 15 15 15 15 16 5 6 7 12 13 15 14 9 8 8 13 14 11 14 15 16 16 14 15 19 19 10 13 9 18 18 13 7
14 15 14 14 13 14 14 14 14 14 14 14 14 16 15 16 16 14 10 8 10 10 10 25 22 19 6 6 10 14 15 14 17 18 18 15 18 19 20 17 4 7 4 10 3 2 5
15 15 14 14 13 13 14 14 14 15 15 14 14 15 16 17 19 11 12 16 11 12 9 16 24 19 13 11 14 17 18 19 16 19 20 20 19 21 21 5 3 13 11 7 8 10 12
15 15 14 14 13 13 13 14 14 15 15 15 15 15 15 18 10 11 12 14 12 12 8 15 26 22 17 13 17 17 20 18 13 19 20 18 18 19 18 10 10 14 14 5 3 9 10
15 15 13 14 14 14 14 15 14 15 15 15 15 15 13 5 15 8 8 5 6 7 8 16 23 11 16 17 13 19 21 20 18 16 15 17 18 15 20 13 13 16 4 5 10 13 15
16 15 13 14 14 14 14 15 16 16 16 16 15 14 12 9 8 16 15 4 7 8 12 10 10 20 22 17 23 18 19 19 16 16 17 21 14 18 18 11 14 16 11 7 10 12 14
15 14 13 14 14 15 15 16 16 17 17 17 16 14 9 11 7 7 10 8 8 12 16 18 20 21 22 20 19 19 21 22 18 15 16 17 20 16 19 16 14 16 14 9 12 13 9
14 14 14 14 15 15 15 18 17 18 17 18 18 14 11 13 7 12 8 10 12 16 25 14 17 20 24 21 21 19 20 19 22 19 13 15 15 17 11 15 15 16 18 12 7 6 12
14 14 14 15 15 16 17 18 17 18 19 20 25 7 8 8 15 8 9 14 10 13 16 10 19 20 23 22 18 15 20 21 20 22 18 15 17 15 16 14 18 16 14 18 21 21 16
15 15 15 15 16 15 17 17 18 20 20 17 7 8 7 13 14 8 10 18 19 19 12 5 10 16 20 23 23 21 21 21 21 23 21 16 11 17 18 16 13 18 14 11 12 17 13
15 16 16 16 17 16 16 17 18 22 23 20 7 8 8 13 10 8 11 18 21 15 6 7 13 7 18 20 22 20 17 15 22 22 20 20 15 9 17 16 16 12 16 18 15 12 12
16 16 16 16 16 17 17 16 17 20 27 5 8 5 9 10 8 9 13 21 13 5 7 13 16 17 18 20 23 19 18 20 19 20 22 19 10 11 17 12 17 20 17 20 9 13 12
16 16 16 16 17 17 18 17 16 16 14 9 6 3 8 11 8 11 17 22 8 13 8 11 17 17 12 13 17 19 15 16 10 15 15 15 10 11 15 19 14 18 18 19 15 17 14
16 17 17 17 18 18 18 18 17 14 10 5 7 0 5 8 11 17 12 20 12 11 15 13 12 14 14 16 15 14 19 10 11 7 9 11 16 14 10 13 14 19 16 19 20 15 15
17 17 17 18 18 18 18 19 19 18 15 5 5 3 11 7 13 17 14 21 14 15 13 12 10 12 13 12 12 11 18 15 11 8 5 10 16 17 19 18 17 13 19 18 18 16 19
17 17 18 18 18 18 19 20 21 23 27 6 4 5 9 7 12 21 11 12 10 15 13 14 12 15 17 16 11 7 13 11 12 14 13 14 15 15 19 18 19 18 14 13 19 18 18
17 17 18 18 18 19 18 19 19 21 23 6 10 10 9 9 13 11 6 8 15 15 14 13 6 11 13 13 3 17 15 8 7 16 15 15 13 14 15 16 19 16 17 17 18 15 16
18 18 18 18 18 18 18 18 18 17 13 8 11 8 8 12 4 6 7 9 27 7 10 6 10 3 8 6 6 10 18 15 14 8 10 13 14 12 13 14 19 13 15 16 19 18 16
17 17 18 17 17 17 17 18 18 16 14 10 9 8 8 10 10 14 12 17 22 4 9 8 11 11 3 7 6 12 15 14 13 10 16 16 15 11 13 13 15 17 16 18 14 13 13
18 17 17 18 18 17 17 17 17 16 15 10 10 4 7 8 12 19 15 9 8 9 12 14 17 7 9 9 9 14 12 13 16 14 15 17 12 12 10 16 19 3 17 27 18 8 16
18 17 17 17 17 17 17 16 16 15 14 9 8 11 6 10 16 15 12 11 14 12 9 8 9 6 10 11 13 13 14 13 9 3 5 6 7 6 12 9 13 11 13 14 7 6 14
18 18 17 17 17 17 16 15 14 14 14 9 10 9 5 8 17 20 17 15 12 12 7 3 8 6 10 12 13 13 9 2 2 9 3 3 4 3 3 12 11 8 6 10 2 8 14
18 18 17 17 17 17 16 14 13 12 12 10 7 6 4 7 13 21 21 21 19 17 9 3 12 9 7 3 9 9 3 5 6 4 6 2 3 3 8 6 15 6 7 5 4 6 7
Wind_Direction
354 1 359 355 355 351 351 352 350 349 348 346 344 343 340 338 338 333 331 327 320 314 309 307 309 314 297 228 255 131 165 162 196 224 242 256 263 273 246 104 172 208 136 139 216 182 300
351 358 359 354 353 350 347 350 347 347 345 343 339 339 334 335 334 330 328 323 316 308 302 301 303 307 246 250 64 157 221 194 229 212 241 246 264 329 302 176 304 359 144 199 163 190 205
351 359 356 354 349 347 345 345 345 345 343 340 335 333 334 332 329 326 322 316 312 305 298 291 287 270 263 242 280 236 223 231 221 234 239 236 265 256 275 164 192 260 226 220 182 195 250
355 356 355 351 348 343 341 343 342 341 339 338 332 332 330 329 327 321 317 313 309 300 292 278 262 253 260 217 246 223 242 237 241 232 239 251 251 280 281 167 230 252 242 224 202 192 236
356 353 351 351 346 343 338 339 340 337 335 331 329 327 328 326 321 317 315 310 302 292 282 236 231 232 259 148 218 232 228 225 204 215 229 286 268 253 250 251 221 207 237 233 211 214 224
355 353 351 350 343 337 335 337 337 338 336 330 327 326 325 321 321 319 316 294 276 298 220 220 257 262 245 231 197 203 210 221 200 208 211 227 229 237 243 211 222 234 231 188 239 179 231
350 350 350 344 337 335 336 336 335 332 332 330 325 323 319 317 318 321 324 298 207 198 234 223 172 228 141 207 143 191 195 215 201 205 210 208 224 224 232 221 239 229 187 196 242 164 218
343 343 341 336 336 337 336 336 333 329 326 326 323 320 318 314 310 311 290 250 29 336 291 221 253 239 282 164 194 208 186 202 201 206 211 195 224 231 245 248 153 276 207 246 119 304 220
340 337 335 329 334 332 334 332 328 326 323 321 319 318 315 313 312 281 236 256 302 316 267 250 211 235 210 233 234 197 191 207 197 213 209 227 204 236 247 228 241 248 254 24 251 230 248
337 332 337 332 332 334 330 327 326 323 319 316 316 316 316 321 286 306 238 233 244 271 273 238 191 217 219 209 231 202 193 205 202 211 223 223 233 209 244 215 216 241 226 208 296 279 267
333 330 333 335 331 334 329 325 323 318 314 311 312 311 309 319 314 267 16 313 207 241 263 191 175 191 201 200 161 197 185 215 233 213 216 221 236 206 230 202 217 253 157 300 269 263 285
328 332 331 334 331 331 327 322 321 317 313 308 305 300 309 249 222 254 315 252 245 230 244 140 134 190 194 201 236 173 186 220 232 237 228 244 205 240 219 212 230 245 276 242 257 251 250
333 334 331 334 332 329 326 322 320 315 309 305 298 286 262 293 245 214 240 239 210 238 248 150 164 177 188 195 207 175 187 200 212 220 220 223 244 214 238 209 212 237 249 257 246 229 37
335 334 334 336 332 327 325 328 321 314 311 308 301 294 224 225 275 277 219 220 243 205 244 149 170 193 206 191 215 173 190 202 215 221 209 216 214 239 214 230 229 212 237 247 250 279 200
336 335 337 336 331 326 329 327 319 317 318 313 309 207 230 215 230 235 224 220 214 239 230 229 169 189 200 197 208 179 208 213 205 224 239 195 227 212 216 212 233 239 216 252 276 289 292
340 338 338 331 327 323 331 326 322 327 319 323 296 246 170 130 196 214 233 244 242 301 321 318 189 184 195 205 204 189 195 213 218 212 240 255 227 212 185 219 233 251 257 224 237 267 276
339 338 334 332 328 326 326 327 330 330 323 327 244 235 115 149 185 224 232 239 242 254 305 294 295 230 214 201 194 202 210 218 210 205 226 254 270 238 204 195 217 210 248 260 281 273 285
342 337 335 332 333 335 336 334 334 332 329 275 268 278 147 168 202 221 232 244 272 268 228 263 289 288 247 213 193 233 208 207 191 223 196 231 259 244 201 206 210 247 222 243 238 253 269
341 340 341 340 339 339 338 335 333 334 355 316 266 145 167 197 222 216 228 252 255 257 265 228 263 272 308 220 197 208 197 224 157 215 205 209 237 257 249 197 205 218 246 240 247 272 282
342 343 345 348 341 340 337 336 332 328 333 296 279 328 166 217 259 291 271 240 214 243 289 292 275 289 275 274 179 193 239 204 133 224 13 212 232 243 250 238 205 206 223 250 238 239 258
342 344 345 344 340 340 339 337 332 330 329 276 253 203 284 200 210 234 244 282 235 219 212 237 275 277 254 266 182 189 223 146 158 169 237 236 234 253 261 279 288 252 210 224 255 262 275
340 340 340 340 342 342 342 338 337 336 330 235 278 219 314 336 327 269 250 269 266 228 197 222 228 226 255 253 6 228 205 182 184 177 214 215 241 250 244 264 269 270 271 246 228 225 250
338 339 341 339 340 340 339 339 343 347 337 318 1 329 303 285 271 310 219 251 257 250 235 236 298 303 298 54 49 314 306 347 229 187 189 224 223 233 247 238 255 252 257 260 270 266 238
341 340 336 337 336 338 338 339 344 347 356 316 301 319 288 292 2 271 267 347 297 236 275 334 241 229 322 334 179 261 285 267 132 347 258 205 235 235 246 250 244 258 265 242 240 248 259
342 341 340 339 338 337 336 337 340 338 340 316 305 307 301 293 296 281 138 196 266 177 254 269 289 260 6 281 270 187 243 253 270 200 262 197 207 226 245 244 257 263 261 246 240 255 244
339 339 338 337 337 335 334 334 335 337 336 315 299 344 289 295 259 344 317 313 283 245 216 224 258 356 301 286 244 240 235 231 228 229 230 259 247 223 221 242 246 283 359 3 314 230 15
337 335 334 334 332 332 330 331 331 332 333 323 289 290 288 287 269 279 295 337 328 333 277 29 339 237 239 255 249 241 236 250 256 278 3 8 359 306 319 276 257 53 40 15 346 17 3
337 335 334 332 330 329 329 331 332 331 333 330 302 284 304 292 295 290 297 297 295 272 43 169 273 305 228 228 249 249 250 305 44 32 96 71 101 338 175 239 252 95 67 118 188 37 19
335 333 330 329 330 329 329 332 334 330 327 332 273 347 295 267 288 309 288 281 284 288 314 221 157 265 303 327 250 274 348 34 57 359 357 250 202 260 216 236 327 110 97 135 188 123 105